Overview Statistics Trail Chart Weather Telemetry Raw packets
 

This is the latest recevied weather packets stored in our database for station/object KD0MAC. If no packets are shown the sender has not sent any weather packets the latest 10 day(s).

<< 6 7 8 9 10 11 12 >>
Time Temp. Humidity Pressure Rain* Wind** Luminosity Snow
1788629934 35.56° C 40% 1014.9 hPa 0 mm - 515 W/m² -
1788629634 35° C 40% 1015.2 hPa 0 mm - 509 W/m² -
1788629375 34.44° C 42% 1015.2 hPa 0 mm - 531 W/m² -
1788629076 34.44° C 41% 1015.2 hPa 0 mm - 528 W/m² -
1788628775 33.89° C 44% 1015.2 hPa 0 mm - 526 W/m² -
1788628734 33.89° C 44% 1015.2 hPa 0 mm - 526 W/m² -
1788628476 33.89° C 44% 1015.2 hPa 0 mm - 520 W/m² -
1788628175 33.89° C 42% 1015.2 hPa 0 mm - 514 W/m² -
1788628137 33.89° C 42% 1015.2 hPa 0 mm - 514 W/m² -
1788627835 33.33° C 44% 1015.2 hPa 0 mm - 508 W/m² -
1788627534 33.89° C 44% 1015.2 hPa 0 mm - 502 W/m² -
1788627276 33.33° C 44% 1015.2 hPa 0 mm - 491 W/m² -
1788626976 33.89° C 43% 1015.2 hPa 0 mm - 488 W/m² -
1788626935 33.89° C 43% 1015.2 hPa 0 mm - 488 W/m² -
1788626675 32.78° C 44% 1015.2 hPa 0 mm - 476 W/m² -
1788626634 32.78° C 44% 1015.2 hPa 0 mm - 476 W/m² -
1788626375 32.78° C 44% 1015.2 hPa 0 mm - 359 W/m² -
1788626335 32.78° C 44% 1015.2 hPa 0 mm - 359 W/m² -
1788626075 32.78° C 44% 1015.2 hPa 0 mm - 470 W/m² -
1788626034 32.78° C 44% 1015.2 hPa 0 mm - 470 W/m² -
1788625775 32.22° C 47% 1015.2 hPa 0 mm - 386 W/m² -
1788625735 32.22° C 47% 1015.2 hPa 0 mm - 386 W/m² -
1788625434 32.22° C 47% 1015.2 hPa 0 mm - 384 W/m² -
1788625135 32.22° C 49% 1014.9 hPa 0 mm - 398 W/m² -
1788624834 31.11° C 52% 1015.2 hPa 0 mm - 438 W/m² -

* Rain latest hour (hover to see other rain measurements)
** Current wind speed in m/s (hover to see current wind gust speed)